[[{"header":{"parameterUnit":"m.s-1","parameterCategory":2,"la1":30.2991,"la2":30.254,"lo1":-89.0895,"lo2":-89.0444,"dy":0.0017,"dx":0.0017,"nx":28,"ny":28,"refTime":"2025-06-19T21:00:00:Z","depth":"0","parameterNumber":2,"parameterNumberName":"U-component_of_CURRENTS"},"data":[0,0,0,0,0,0,0,0,0,0,0,0,0,0,0,0,0,0,0,0,0,0,0,0,0,0,0,0,0,0,0,0,0,0,0,0,0,0,0,0,0,0,0,0,0,0,0,0,0,0,0,0,0,0,0,0,0,0,0.3306,0.3307,0,0.3353,0.3353,0.3354,0.3361,0.3361,0.336,0.336,0.3391,0.3392,0.3393,0,0,0,0,0,0,0,0,0,0,0,0,0,0.326,0.3261,0.3306,0.3307,0.3308,0.3353,0.3353,0.3354,0.3361,0.3361,0.336,0.336,0.339,0.3392,0.3393,0,0,0,0,0,0,0,0,0,0,0,0,0,0.3288,0.3261,0.3306,0.3318,0.332,0.3353,0.3353,0.3354,0.3361,0.3361,0.336,0.336,0.339,0.3392,0.3393,0.3408,0,0,0.3397,0.3398,0,0,0,0,0,0,0,0,0.3287,0.329,0.3316,0.3318,0.332,0.3353,0.3349,0.3372,0.3361,0.3343,0.336,0.336,0.3379,0.3381,0.3387,0.3409,0.341,0.3398,0.3399,0.3399,0.34,0,0,0,0,0,0,0,0.3285,0.3288,0.3322,0.3317,0.3319,0.3335,0.3338,0.3353,0.3359,0.3344,0.3346,0.3355,0.3379,0.3386,0.3388,0.3411,0.3398,0.3399,0.34,0.34,0.3514,0.3516,0,0,0,0,0,0,0.3282,0.3286,0.332,0.3324,0.3305,0.3336,0.334,0.334,0.336,0.3363,0.3355,0.3355,0.3383,0.3386,0.3389,0.3442,0.3399,0.3401,0.3401,0.3512,0.3514,0.3517,0,0,0,0,0,0,0.3281,0.3285,0.3319,0.3308,0.3314,0.3337,0.3338,0.3342,0.3357,0.3369,0.3371,0.3368,0.3383,0.3387,0.3423,0.3442,0.3401,0.3403,0.3509,0.3513,0.3515,0.3527,0,0,0,0,0,0,0.3279,0.3284,0.3283,0.3308,0.3315,0.3337,0.3339,0.3343,0.3364,0.3364,0.3381,0.3382,0.3383,0.3421,0.3424,0.3443,0.3404,0.3506,0.3511,0.3514,0.3524,0.353,0.3535,0,0,0,0,0,0.3277,0.3275,0.3282,0.3287,0.3313,0.3338,0.3343,0.3357,0.3365,0.337,0.3396,0.3382,0.3449,0.3423,0.3427,0.3447,0.3505,0.3509,0.3514,0.3521,0.3529,0.3535,0,0,0,0,0,0,0.3256,0.3277,0.3285,0.329,0.3314,0.334,0.3345,0.3364,0.3388,0.339,0.3404,0.3408,0.3451,0.3455,0.3427,0.3497,0.3477,0.3483,0.3481,0.3488,0.3494,0.3498,0.3405,0,0,0,0,0,0.3252,0.3254,0.3283,0.3288,0.3297,0.3325,0.3338,0.3352,0.3378,0.3388,0.3403,0.3432,0.3473,0.3484,0.3511,0.3541,0.3582,0.3562,0.3568,0.3573,0.3583,0.3666,0.368,0.3532,0.3532,0.3532,0,0,0.3245,0.3259,0.326,0.3284,0.33,0.3324,0.3331,0.3351,0.3379,0.3388,0.3421,0.345,0.349,0.353,0.3549,0.3533,0.3641,0.3579,0.3582,0.359,0.3672,0.3687,0.3699,0.3536,0.3535,0.3534,0,0,0.3242,0.3245,0.325,0.3271,0.33,0.332,0.3331,0.3361,0.3376,0.3413,0.3445,0.3491,0.3524,0.3568,0.3595,0.3653,0.3673,0.366,0.3682,0.3762,0.3775,0.3786,0.387,0.3889,0.3656,0.3656,0.3656,0,0.324,0.3245,0.3257,0.3277,0.3293,0.3323,0.3341,0.3371,0.3411,0.3434,0.3421,0.3524,0.3547,0.3635,0.3657,0.3664,0.3715,0.3644,0.3768,0.378,0.3792,0.3875,0.3896,0.3657,0.3657,0.3656,0.3656,0,0.3244,0.3254,0.3259,0.3292,0.3312,0.3329,0.3371,0.3395,0.3414,0.3448,0.3519,0.3563,0.3624,0.3646,0.3666,0.3769,0.3782,0.3768,0.3743,0.3807,0.3891,0.3913,0.3658,0.3658,0.3658,0.3657,0,0,0.3233,0.3256,0.326,0.3272,0.3317,0.3334,0.338,0.343,0.3471,0.3508,0.3567,0.3647,0.3672,0.3709,0.3748,0.3817,0.3943,0.3825,0.3829,0.3897,0.4136,0.4187,0.4215,0.3948,0.3952,0.3955,0.4167,0,0.3236,0.3256,0.3273,0.3303,0.3315,0.3353,0.3395,0.3448,0.349,0.3553,0.3621,0.3691,0.3698,0.3735,0.3809,0.3915,0.3998,0.3888,0.4075,0.4082,0.4109,0.4241,0.4183,0.4371,0.4187,0.4191,0.4193,0,0.3241,0.3251,0.3264,0.33,0.3309,0.3336,0.3398,0.3441,0.3542,0.3578,0.3659,0.3717,0.3845,0.3826,0.4039,0.397,0.406,0.4131,0.4141,0.4199,0.4173,0.4278,0.4417,0.421,0.4226,0.4223,0.4221,0,0.3215,0.3248,0.325,0.3263,0.3311,0.3326,0.3359,0.3444,0.3491,0.3606,0.3659,0.3795,0.3879,0.4008,0.4157,0.411,0.4388,0.4334,0.4471,0.4475,0.447,0.4468,0.442,0.4492,0.4491,0.4491,0.449,0,0.3207,0.3211,0.3235,0.3236,0.3254,0.3299,0.3339,0.3397,0.3496,0.3563,0.3671,0.3762,0.393,0.4095,0.4204,0.443,0.4434,0.4522,0.4551,0.4475,0.4472,0.4325,0.419,0.4498,0.4497,0.4495,0.4494,0,0.3167,0.3188,0.3189,0.3222,0.3237,0.3245,0.3311,0.3346,0.3455,0.3549,0.3593,0.3783,0.401,0.4194,0.4432,0.451,0.4579,0.4768,0.4676,0.4692,0.4604,0.4473,0.439,0.4272,0.4959,0.4962,0.4964,0,0.3131,0.3132,0.3156,0.3151,0.3158,0.3183,0.3203,0.3309,0.3358,0.3556,0.3604,0.3857,0.4041,0.4437,0.4644,0.4905,0.4682,0.4964,0.4862,0.4635,0.451,0.4283,0.417,0.4865,0.4866,0.4867,0.4868,0,0.305,0.3067,0.3061,0.3062,0.307,0.3095,0.3139,0.3188,0.3321,0.3439,0.3621,0.3796,0.4206,0.4462,0.4815,0.4962,0.4704,0.4996,0.4781,0.4472,0.4201,0.409,0.4677,0.4878,0.4877,0.4877,0.4876,0.4876,0.2961,0.2949,0.2944,0.2939,0.2959,0.2986,0.2986,0.3076,0.318,0.333,0.3545,0.3767,0.418,0.4694,0.4827,0.4929,0.4803,0.4823,0.4703,0.4509,0.4321,0.4946,0.5157,0.5157,0.5158,0.5158,0.5159,0,0.2809,0.2817,0.2816,0.2808,0.2792,0.2852,0.2914,0.292,0.3007,0.3214,0.3388,0.376,0.4105,0.442,0.4697,0.4605,0.4456,0.447,0.4089,0.4009,0.4615,0.4533,0.4591,0.4591,0.4591,0.4592,0.4592,0.4592,0.2717,0.2664,0.2686,0.2623,0.2634,0.26,0.2621,0.2683,0.2806,0.2981,0.3147,0.337,0.3754,0.4092,0.4147,0.4147,0.3771,0.3711,0.3572,0.3931,0.3951,0.3969,0.3859,0.3775,0.3773,0.2893,0.2886,0.288]},{"header":{"parameterUnit":"m.s-1","parameterCategory":2,"la1":30.2991,"la2":30.254,"lo1":-89.0895,"lo2":-89.0444,"dy":0.0017,"dx":0.0017,"nx":28,"ny":28,"refTime":"2025-06-19T21:00:00:Z","depth":"0","parameterNumber":3,"parameterNumberName":"V-component_of_CURRENTS"},"data":[0,0,0,0,0,0,0,0,0,0,0,0,0,0,0,0,0,0,0,0,0,0,0,0,0,0,0,0,0,0,0,0,0,0,0,0,0,0,0,0,0,0,0,0,0,0,0,0,0,0,0,0,0,0,0,0,0,0,-0.0229,-0.023,0,-0.0308,-0.031,-0.0311,-0.0381,-0.0382,-0.0383,-0.0383,-0.0504,-0.0506,-0.0509,0,0,0,0,0,0,0,0,0,0,0,0,0,-0.0163,-0.0164,-0.0229,-0.023,-0.0231,-0.0308,-0.031,-0.0311,-0.0381,-0.0382,-0.0383,-0.0383,-0.0503,-0.0506,-0.0509,0,0,0,0,0,0,0,0,0,0,0,0,0,-0.0213,-0.0164,-0.0229,-0.0274,-0.0279,-0.0308,-0.031,-0.0311,-0.0381,-0.0382,-0.0383,-0.0384,-0.0502,-0.0506,-0.0509,-0.0513,0,0,-0.0521,-0.0523,0,0,0,0,0,0,0,0,-0.021,-0.0216,-0.0266,-0.0271,-0.0276,-0.0335,-0.033,-0.038,-0.0381,-0.0344,-0.0383,-0.0384,-0.0449,-0.0457,-0.0472,-0.0518,-0.0524,-0.0521,-0.0524,-0.0525,-0.0527,0,0,0,0,0,0,0,-0.0207,-0.0213,-0.0262,-0.0267,-0.0273,-0.0299,-0.0307,-0.034,-0.0392,-0.0347,-0.0352,-0.0358,-0.0452,-0.0468,-0.0475,-0.0525,-0.0521,-0.0525,-0.0527,-0.0529,-0.0577,-0.0576,0,0,0,0,0,0,-0.0191,-0.0209,-0.0259,-0.0264,-0.0243,-0.0299,-0.0308,-0.0316,-0.0391,-0.0402,-0.0357,-0.0361,-0.0461,-0.0471,-0.048,-0.0466,-0.0525,-0.0529,-0.0531,-0.0578,-0.0577,-0.0575,0,0,0,0,0,0,-0.019,-0.0195,-0.0256,-0.0237,-0.0247,-0.0298,-0.0307,-0.0317,-0.033,-0.0397,-0.041,-0.0359,-0.0462,-0.0474,-0.0501,-0.0472,-0.0531,-0.0534,-0.0579,-0.0577,-0.0576,-0.0453,0,0,0,0,0,0,-0.0187,-0.0194,-0.0193,-0.0236,-0.0247,-0.0257,-0.0306,-0.0318,-0.0332,-0.0338,-0.0404,-0.0416,-0.0464,-0.0495,-0.0505,-0.0479,-0.0537,-0.058,-0.0578,-0.0576,-0.0458,-0.0448,-0.0438,0,0,0,0,0,-0.0185,-0.0175,-0.0193,-0.0199,-0.0245,-0.0256,-0.0263,-0.0305,-0.033,-0.0323,-0.0373,-0.0414,-0.049,-0.0497,-0.0509,-0.0483,-0.0581,-0.0579,-0.0577,-0.0463,-0.045,-0.0438,0,0,0,0,0,0,-0.0143,-0.0182,-0.0203,-0.0206,-0.0222,-0.0267,-0.0268,-0.0294,-0.0327,-0.0336,-0.0403,-0.0418,-0.0431,-0.0474,-0.048,-0.0492,-0.0541,-0.0541,-0.0451,-0.0439,-0.0429,-0.0406,-0.0541,0,0,0,0,0,-0.0132,-0.0138,-0.0173,-0.0172,-0.0179,-0.0221,-0.0231,-0.0255,-0.029,-0.0306,-0.0352,-0.0399,-0.043,-0.0447,-0.0486,-0.049,-0.0526,-0.0482,-0.0471,-0.0462,-0.0452,-0.0483,-0.0474,-0.0568,-0.0568,-0.0568,0,0,-0.0114,-0.0137,-0.014,-0.0163,-0.0185,-0.0176,-0.023,-0.0234,-0.0226,-0.0313,-0.0319,-0.0366,-0.0425,-0.0431,-0.044,-0.0463,-0.0451,-0.0459,-0.0451,-0.0446,-0.0479,-0.047,-0.0462,-0.0566,-0.0566,-0.0567,0,0,-0.0075,-0.01,-0.0091,-0.0098,-0.0119,-0.0139,-0.0133,-0.0169,-0.0185,-0.0195,-0.0253,-0.0278,-0.0332,-0.036,-0.0383,-0.0338,-0.0398,-0.0352,-0.028,-0.0309,-0.0301,-0.0295,-0.0312,-0.0308,-0.0345,-0.0344,-0.0344,0,-0.0052,-0.0047,-0.0086,-0.0074,-0.0067,-0.0114,-0.0086,-0.0105,-0.0143,-0.0146,-0.0182,-0.0245,-0.0294,-0.0296,-0.0282,-0.0313,-0.034,-0.0319,-0.0294,-0.0289,-0.0285,-0.0304,-0.0302,-0.0338,-0.0339,-0.0339,-0.034,0,-0.0007,0.0002,0.0013,0.0011,0.0016,0.0034,0.0011,0.001,-0.0017,-0.0041,-0.0054,-0.0121,-0.0159,-0.0172,-0.0216,-0.0202,-0.0233,-0.0278,-0.032,-0.0267,-0.0292,-0.0291,-0.0329,-0.0331,-0.0333,-0.0335,0,0,0.0034,0.0042,0.0047,0.0067,0.0066,0.0077,0.01,0.0107,0.0125,0.0078,0.0096,0.004,-0.0004,-0.0033,-0.0088,-0.011,-0.0099,-0.0172,-0.0176,-0.0179,-0.0154,-0.0161,-0.0162,-0.0143,-0.0142,-0.0142,-0.0177,0,0.0085,0.0129,0.0123,0.0183,0.0208,0.0191,0.0222,0.0221,0.0203,0.0206,0.0143,0.0127,0.0051,0.0035,0.0005,-0.0074,-0.0096,-0.0085,-0.0214,-0.0217,-0.0222,-0.016,-0.0119,-0.0145,-0.0177,-0.0177,-0.0177,0,0.0133,0.0157,0.0219,0.027,0.0282,0.0311,0.0354,0.0371,0.0362,0.0347,0.0316,0.0258,0.0225,0.0145,0.0047,0.0055,-0.0036,-0.0102,-0.0106,-0.0156,-0.0223,-0.0209,-0.0144,-0.0333,-0.0177,-0.0177,-0.0177,0,0.0179,0.0232,0.0286,0.0302,0.0345,0.0375,0.0398,0.041,0.0439,0.0426,0.0441,0.0377,0.0352,0.0237,0.01,0.007,-0.0007,-0.0075,-0.0164,-0.0166,-0.0177,-0.018,-0.0303,-0.0146,-0.0146,-0.0146,-0.0146,0,0.0236,0.0282,0.0309,0.0338,0.0416,0.0423,0.0496,0.0507,0.0534,0.0581,0.0507,0.0533,0.0372,0.0304,0.0155,0.0018,0.003,-0.0132,-0.0169,-0.0132,-0.013,-0.0336,-0.0446,-0.0147,-0.0147,-0.0147,-0.0147,0,0.028,0.0296,0.036,0.0413,0.0436,0.0485,0.0559,0.0609,0.0622,0.0683,0.0684,0.0657,0.0582,0.0423,0.0255,0.0104,-0.0127,-0.0102,-0.0037,-0.0066,-0.0337,-0.044,-0.0564,-0.0622,-0.0205,-0.0205,-0.0206,0,0.0308,0.0342,0.041,0.0453,0.0479,0.0548,0.0604,0.0643,0.07,0.0763,0.0805,0.0768,0.0782,0.0558,0.0297,0.0067,-0.0114,-0.0088,-0.0147,-0.0326,-0.047,-0.052,-0.0564,-0.0111,-0.011,-0.011,-0.0109,0,0.0368,0.0384,0.0433,0.0517,0.058,0.0662,0.0741,0.0805,0.086,0.0938,0.1031,0.1058,0.0865,0.0692,0.0376,0.0184,-0.0189,-0.0087,-0.0292,-0.041,-0.0454,-0.0535,-0.0116,-0.0105,-0.0105,-0.0106,-0.0106,-0.0106,0.0412,0.0457,0.0517,0.06,0.0675,0.078,0.0867,0.0968,0.1099,0.1262,0.1235,0.1361,0.106,0.0665,0.0354,-0.0171,-0.0178,-0.0339,-0.0448,-0.0481,-0.0539,-0.0101,-0.0127,-0.0128,-0.0128,-0.0128,-0.0129,0,0.0474,0.0526,0.0604,0.0709,0.0804,0.0829,0.097,0.1081,0.1265,0.1452,0.1572,0.155,0.1165,0.0701,-0.0003,-0.0438,-0.0576,-0.0679,-0.0759,-0.0788,-0.0414,-0.0415,-0.048,-0.048,-0.048,-0.0479,-0.0479,-0.0479,0.0515,0.0597,0.0638,0.0805,0.0883,0.1031,0.1122,0.1299,0.1469,0.1752,0.1899,0.1959,0.1594,0.0329,-0.0565,-0.0783,-0.1078,-0.1139,-0.129,-0.1078,-0.1055,-0.1033,-0.1061,-0.126,-0.1261,-0.1575,-0.1579,-0.1582]}],[{"header":{"parameterUnit":"m.s-1","parameterCategory":2,"la1":30.2991,"la2":30.254,"lo1":-89.0895,"lo2":-89.0444,"dy":0.0017,"dx":0.0017,"nx":28,"ny":28,"refTime":"2025-06-19T21:00:00:Z","depth":"2","parameterNumber":2,"parameterNumberName":"U-component_of_CURRENTS"},"data":[0,0,0,0,0,0,0,0,0,0,0,0,0,0,0,0,0,0,0,0,0,0,0,0,0,0,0,0,0,0,0,0,0,0,0,0,0,0,0,0,0,0,0,0,0,0,0,0,0,0,0,0,0,0,0,0,0,0,0.1659,0.166,0,0.1725,0.1725,0.1726,0.1732,0.1732,0.1732,0.1731,0.177,0.1772,0.1773,0,0,0,0,0,0,0,0,0,0,0,0,0,0.1524,0.1526,0.1659,0.166,0.1661,0.1725,0.1725,0.1726,0.1732,0.1732,0.1732,0.1731,0.177,0.1772,0.1773,0,0,0,0,0,0,0,0,0,0,0,0,0,0.1582,0.1527,0.1659,0.1675,0.1677,0.1724,0.1725,0.1726,0.1732,0.1732,0.1731,0.1731,0.1769,0.1771,0.1774,0.1797,0,0,0.178,0.1781,0,0,0,0,0,0,0,0,0.1579,0.1587,0.1672,0.1674,0.1677,0.1723,0.1692,0.1749,0.1733,0.1708,0.1731,0.1731,0.1755,0.1758,0.1767,0.1798,0.18,0.178,0.1781,0.1782,0.1783,0,0,0,0,0,0,0,0.1575,0.1584,0.1681,0.1673,0.1676,0.1674,0.1681,0.1703,0.173,0.171,0.1711,0.1725,0.1755,0.1765,0.1768,0.1801,0.178,0.1782,0.1783,0.1784,0.194,0.1943,0,0,0,0,0,0,0.1576,0.158,0.1679,0.1684,0.1629,0.1677,0.1685,0.1706,0.1731,0.1735,0.1725,0.1725,0.1762,0.1765,0.1769,0.1876,0.1782,0.1784,0.1785,0.1937,0.1941,0.1944,0,0,0,0,0,0,0.1573,0.1584,0.1677,0.1635,0.1648,0.168,0.1703,0.1707,0.1735,0.1743,0.1746,0.175,0.1761,0.1766,0.1829,0.1874,0.1785,0.1787,0.1934,0.1938,0.1942,0.204,0,0,0,0,0,0,0.1569,0.1583,0.1606,0.1636,0.165,0.1719,0.1704,0.1709,0.1744,0.1745,0.1766,0.1768,0.1761,0.1826,0.1831,0.1876,0.1788,0.193,0.1936,0.1941,0.2033,0.2047,0.2059,0,0,0,0,0,0.1564,0.16,0.1607,0.1619,0.1679,0.1721,0.1728,0.1746,0.1746,0.1767,0.1798,0.1768,0.1863,0.1831,0.1835,0.1882,0.1927,0.1934,0.1941,0.2027,0.2044,0.2059,0,0,0,0,0,0,0.1563,0.1605,0.1613,0.1663,0.1695,0.1724,0.1754,0.1762,0.1802,0.1809,0.1809,0.1815,0.1887,0.1877,0.184,0.1945,0.1889,0.1897,0.1953,0.1969,0.1982,0.1994,0.179,0,0,0,0,0,0.1573,0.1607,0.1643,0.1687,0.1706,0.1732,0.1756,0.1767,0.1803,0.1819,0.1839,0.187,0.1916,0.1936,0.1966,0.2023,0.2049,0.2057,0.207,0.2081,0.2096,0.2185,0.2208,0.1965,0.1965,0.1965,0,0,0.1588,0.1615,0.1638,0.1689,0.1716,0.1758,0.1745,0.179,0.1833,0.1819,0.1892,0.1918,0.1944,0.2015,0.2044,0.2012,0.217,0.2089,0.2098,0.2107,0.2195,0.2218,0.2239,0.197,0.1969,0.1968,0,0,0.1631,0.166,0.1699,0.1728,0.1774,0.1792,0.181,0.1852,0.188,0.1947,0.1962,0.2026,0.2072,0.2115,0.2139,0.2244,0.2239,0.2246,0.2318,0.2406,0.2426,0.2444,0.253,0.2555,0.2248,0.2249,0.2249,0,0.1654,0.1702,0.1719,0.1762,0.1797,0.1812,0.1862,0.1897,0.1957,0.2001,0.1981,0.2112,0.2124,0.2239,0.2275,0.2274,0.2321,0.2253,0.2423,0.2441,0.2458,0.2541,0.2568,0.2254,0.2254,0.2253,0.2252,0,0.1714,0.176,0.179,0.1847,0.1884,0.1932,0.1975,0.2026,0.2056,0.2092,0.2206,0.2243,0.2322,0.2337,0.2337,0.2474,0.2469,0.2431,0.238,0.2489,0.2569,0.2595,0.2262,0.226,0.2258,0.2257,0,0,0.1762,0.1821,0.1836,0.1869,0.1932,0.1969,0.2054,0.2138,0.2209,0.2263,0.2368,0.2451,0.2474,0.2505,0.2523,0.2592,0.2754,0.2568,0.257,0.2648,0.2964,0.2892,0.2913,0.2748,0.2753,0.2756,0.2979,0,0.1813,0.189,0.1913,0.1999,0.2045,0.2087,0.2164,0.224,0.2304,0.2405,0.2468,0.2562,0.2537,0.2587,0.2663,0.2732,0.2824,0.2698,0.285,0.2856,0.2774,0.2941,0.2568,0.2729,0.3004,0.3008,0.3011,0,0.1872,0.1912,0.1997,0.2075,0.2102,0.216,0.2287,0.2357,0.249,0.2542,0.2649,0.2689,0.2829,0.2768,0.2968,0.2892,0.295,0.2986,0.2995,0.291,0.2832,0.2662,0.2765,0.3053,0.305,0.3047,0.3044,0,0.1891,0.1977,0.2043,0.2071,0.2161,0.2227,0.2288,0.2412,0.2486,0.2643,0.2711,0.286,0.2948,0.3048,0.3137,0.3069,0.3341,0.3248,0.3248,0.3243,0.2946,0.2907,0.3403,0.3403,0.3403,0.3402,0.3401,0,0.1931,0.199,0.206,0.2097,0.219,0.2252,0.2372,0.2456,0.2589,0.2685,0.2787,0.2895,0.3021,0.3171,0.3223,0.3346,0.3427,0.3311,0.3314,0.2972,0.2934,0.321,0.3184,0.341,0.3408,0.3407,0.3405,0,0.1944,0.1992,0.2069,0.2165,0.2201,0.2272,0.2395,0.2471,0.2604,0.274,0.2792,0.2975,0.3186,0.332,0.3509,0.3458,0.3569,0.3588,0.3185,0.3136,0.3386,0.3363,0.3602,0.3602,0.3601,0.3601,0.3601,0,0.1952,0.1994,0.21,0.2136,0.2184,0.2284,0.2346,0.2475,0.2549,0.2777,0.2837,0.3089,0.3237,0.3508,0.345,0.3556,0.3693,0.3298,0.3086,0.3438,0.3416,0.3393,0.3371,0.2743,0.2736,0.273,0.2725,0,0.1948,0.1997,0.2041,0.2117,0.2185,0.2258,0.2356,0.241,0.2564,0.2697,0.2889,0.3031,0.3217,0.3147,0.3268,0.3264,0.324,0.3182,0.3696,0.2743,0.2643,0.2616,0.262,0.2673,0.2678,0.2682,0.2685,0.2687,0.1927,0.1951,0.2001,0.2075,0.2145,0.2203,0.2242,0.2353,0.2472,0.2637,0.2819,0.2905,0.2805,0.2783,0.2787,0.2788,0.2963,0.283,0.2841,0.2861,0.2714,0.2619,0.2618,0.2622,0.2626,0.263,0.2633,0,0.1854,0.1892,0.1947,0.2009,0.2047,0.2132,0.2217,0.2241,0.2355,0.247,0.2645,0.2306,0.2274,0.2327,0.2153,0.2142,0.2052,0.2174,0.1999,0.2049,0.2095,0.1904,0.1596,0.1595,0.1593,0.1591,0,0,0.1805,0.1808,0.1843,0.1879,0.1947,0.198,0.2021,0.2084,0.212,0.2127,0.2089,0.2192,0.2125,0.1746,0.1714,0.1672,0.1865,0.1628,0.2435,0.2271,0.2315,0.2427,0.2185,0,0,0,0,0]},{"header":{"parameterUnit":"m.s-1","parameterCategory":2,"la1":30.2991,"la2":30.254,"lo1":-89.0895,"lo2":-89.0444,"dy":0.0017,"dx":0.0017,"nx":28,"ny":28,"refTime":"2025-06-19T21:00:00:Z","depth":"2","parameterNumber":3,"parameterNumberName":"V-component_of_CURRENTS"},"data":[0,0,0,0,0,0,0,0,0,0,0,0,0,0,0,0,0,0,0,0,0,0,0,0,0,0,0,0,0,0,0,0,0,0,0,0,0,0,0,0,0,0,0,0,0,0,0,0,0,0,0,0,0,0,0,0,0,0,0.0353,0.0352,0,0.028,0.0279,0.0278,0.0193,0.0192,0.0191,0.019,0.0041,0.0039,0.0036,0,0,0,0,0,0,0,0,0,0,0,0,0,0.0412,0.0411,0.0353,0.0352,0.0351,0.028,0.0279,0.0278,0.0193,0.0192,0.019,0.0189,0.0042,0.0039,0.0036,0,0,0,0,0,0,0,0,0,0,0,0,0,0.0367,0.0411,0.0353,0.0301,0.0296,0.028,0.0279,0.0277,0.0194,0.0192,0.019,0.0188,0.0043,0.0039,0.0035,0.0046,0,0,0.0022,0.002,0,0,0,0,0,0,0,0,0.0369,0.0365,0.0309,0.0304,0.0298,0.0244,0.0245,0.0196,0.0194,0.0232,0.019,0.0187,0.0104,0.0095,0.0085,0.0039,0.0033,0.0022,0.0019,0.0017,0.0016,0,0,0,0,0,0,0,0.0373,0.0367,0.0323,0.0309,0.0302,0.0279,0.027,0.0236,0.0177,0.0228,0.0222,0.0216,0.01,0.009,0.0081,0.003,0.0022,0.0018,0.0016,0.0014,-0.0112,-0.0112,0,0,0,0,0,0,0.0385,0.037,0.0326,0.0321,0.0331,0.0279,0.027,0.0263,0.0179,0.0165,0.0217,0.0212,0.0098,0.0086,0.0075,0.0025,0.0017,0.0014,0.0011,-0.0111,-0.0112,-0.0113,0,0,0,0,0,0,0.0387,0.0382,0.0329,0.0344,0.0336,0.028,0.0273,0.0263,0.0227,0.0171,0.0156,0.019,0.0096,0.0081,0.0027,0.0021,0.0012,0.0008,-0.011,-0.0111,-0.0112,-0.0038,0,0,0,0,0,0,0.0389,0.0383,0.0374,0.0345,0.0336,0.0317,0.0275,0.0262,0.0227,0.0219,0.0143,0.0129,0.0093,0.0033,0.0022,0.0015,0.0005,-0.0109,-0.011,-0.0112,-0.0039,-0.0036,-0.0034,0,0,0,0,0,0.0391,0.039,0.0374,0.0368,0.0327,0.0318,0.0311,0.0264,0.0228,0.0223,0.0162,0.013,0.0015,0.003,0.0017,0.0008,-0.0108,-0.011,-0.0112,-0.004,-0.0037,-0.0034,0,0,0,0,0,0,0.0403,0.0381,0.0362,0.0351,0.0335,0.0303,0.0288,0.0259,0.0209,0.0186,0.0128,0.0111,0.006,0.0021,0.0038,-0.0036,-0.0055,-0.0059,0.0004,0.0006,0.0009,0.0038,0.0001,0,0,0,0,0,0.0406,0.0398,0.0378,0.0366,0.0359,0.0321,0.0305,0.0277,0.0236,0.021,0.0156,0.0093,0.0049,0.0016,-0.0028,-0.0062,-0.01,-0.0082,-0.0079,-0.0076,-0.0064,-0.0128,-0.0129,-0.0119,-0.0119,-0.0119,0,0,0.0406,0.0392,0.0385,0.0368,0.0346,0.035,0.0306,0.0283,0.0277,0.0203,0.016,0.0103,0.0041,0.0002,-0.0026,-0.0036,-0.0101,-0.0079,-0.0075,-0.0064,-0.013,-0.0131,-0.0131,-0.012,-0.012,-0.0119,0,0,0.0414,0.0391,0.0393,0.0389,0.0365,0.0353,0.0346,0.0309,0.0278,0.0242,0.0183,0.0127,0.0052,0.0016,-0.0014,-0.0024,-0.0081,-0.0055,-0.0018,-0.008,-0.0081,-0.0082,-0.0127,-0.0133,-0.0056,-0.0056,-0.0056,0,0.0407,0.0413,0.0392,0.04,0.0398,0.0358,0.0368,0.0347,0.0292,0.0271,0.0231,0.0121,0.0066,0.0029,0.0019,-0.0014,-0.006,-0.0019,-0.0074,-0.0076,-0.0078,-0.0124,-0.0131,-0.0053,-0.0053,-0.0053,-0.0054,0,0.0428,0.0431,0.0433,0.0435,0.0434,0.0434,0.0416,0.0396,0.0349,0.032,0.0259,0.0183,0.0118,0.0087,0.0049,0.0005,-0.0026,-0.0057,-0.0072,-0.0074,-0.0123,-0.0132,-0.0048,-0.0049,-0.005,-0.0051,0,0,0.0411,0.0441,0.0438,0.0455,0.0452,0.0457,0.0455,0.0445,0.0443,0.0369,0.0351,0.0261,0.0206,0.0168,0.0105,0.0051,-0.0007,-0.001,-0.0015,-0.0036,-0.0144,-0.0099,-0.0105,-0.0058,-0.0059,-0.006,-0.0169,0,0.0426,0.0459,0.0469,0.0503,0.0521,0.0509,0.0519,0.0503,0.0473,0.0449,0.0362,0.0314,0.0242,0.02,0.0137,0.0037,-0.0029,0.0026,-0.0155,-0.0159,-0.0105,-0.0113,-0.0148,-0.0242,-0.0178,-0.0179,-0.018,0,0.0439,0.0464,0.0497,0.0548,0.0554,0.0565,0.0579,0.0586,0.0556,0.0527,0.0467,0.0399,0.0318,0.0246,0.008,0.0112,-0.0014,-0.0098,-0.0105,-0.0092,-0.0131,-0.0235,-0.0261,-0.0195,-0.0194,-0.0193,-0.0192,0,0.0437,0.0486,0.0513,0.0527,0.0572,0.0576,0.0593,0.059,0.0608,0.0567,0.0565,0.0458,0.0402,0.0244,0.0082,0.0059,-0.0095,-0.0151,-0.023,-0.0229,-0.0305,-0.0306,-0.0291,-0.0291,-0.029,-0.029,-0.029,0,0.0454,0.0478,0.0511,0.0527,0.0568,0.0588,0.0623,0.0629,0.0644,0.0676,0.0594,0.06,0.0391,0.0287,0.0114,-0.0054,-0.0079,-0.0216,-0.0252,-0.0279,-0.0277,-0.0274,-0.0271,-0.0294,-0.0293,-0.0292,-0.0292,0,0.0451,0.0469,0.0509,0.0551,0.0566,0.0589,0.0653,0.0693,0.0698,0.0739,0.0725,0.0683,0.0567,0.0379,0.0145,0.0003,-0.0175,-0.0243,-0.0238,-0.027,-0.0284,-0.0276,-0.0353,-0.0352,-0.0352,-0.0351,-0.0351,0,0.0457,0.0472,0.0517,0.0547,0.0562,0.0606,0.0653,0.0695,0.0756,0.0805,0.084,0.0758,0.0756,0.048,0.0166,-0.011,-0.0139,-0.0302,-0.0348,-0.0261,-0.0291,-0.0283,-0.0276,-0.0438,-0.0438,-0.0438,-0.0439,0,0.0476,0.0473,0.0509,0.0564,0.0609,0.0689,0.076,0.0825,0.0891,0.0959,0.1047,0.1057,0.0787,0.0519,0.0162,-0.0031,-0.0252,-0.0313,-0.0255,-0.0382,-0.0341,-0.0369,-0.036,-0.0441,-0.0441,-0.0441,-0.044,-0.044,0.0482,0.0508,0.0545,0.0602,0.0664,0.0776,0.0858,0.0975,0.1108,0.125,0.1238,0.1226,0.0817,0.0357,0.0066,-0.0256,-0.026,-0.0396,-0.0397,-0.0397,-0.0353,-0.0309,-0.0396,-0.0395,-0.0395,-0.0395,-0.0394,0,0.0509,0.0538,0.0595,0.0677,0.076,0.0785,0.0942,0.1065,0.1253,0.1336,0.1446,0.1063,0.0775,0.0372,-0.0136,-0.0406,-0.0453,-0.0451,-0.0491,-0.0487,-0.0485,-0.0446,-0.0514,-0.0514,-0.0515,-0.0515,0,0,0.0526,0.0581,0.0616,0.0748,0.0807,0.0946,0.1044,0.1247,0.1335,0.1459,0.1398,0.1315,0.0757,0.0352,-0.0029,-0.0258,-0.029,-0.029,-0.0178,-0.0179,-0.0172,-0.0453,-0.0388,0,0,0,0,0]}],[{"header":{"parameterUnit":"m.s-1","parameterCategory":2,"la1":30.2991,"la2":30.254,"lo1":-89.0895,"lo2":-89.0444,"dy":0.0017,"dx":0.0017,"nx":28,"ny":28,"refTime":"2025-06-19T21:00:00:Z","depth":"4","parameterNumber":2,"parameterNumberName":"U-component_of_CURRENTS"},"data":[0,0,0,0,0,0,0,0,0,0,0,0,0,0,0,0,0,0,0,0,0,0,0,0,0,0,0,0,0,0,0,0,0,0,0,0,0,0,0,0,0,0,0,0,0,0,0,0,0,0,0,0,0,0,0,0,0,0,0.0536,0.0536,0,0.0589,0.059,0.059,0.0648,0.0648,0.0649,0.065,0.0695,0.0696,0.0697,0,0,0,0,0,0,0,0,0,0,0,0,0,0.049,0.049,0.0536,0.0536,0.0537,0.0589,0.059,0.0591,0.0648,0.0648,0.0649,0.065,0.0695,0.0696,0.0697,0,0,0,0,0,0,0,0,0,0,0,0,0,0.0525,0.0491,0.0536,0.057,0.0574,0.0589,0.059,0.0591,0.0648,0.0648,0.0649,0.065,0.0695,0.0696,0.0697,0.0682,0,0,0.0699,0.07,0,0,0,0,0,0,0,0,0.0522,0.0526,0.0565,0.0568,0.0572,0.0611,0.059,0.062,0.0647,0.0621,0.065,0.0651,0.0665,0.0668,0.0678,0.0685,0.0686,0.0699,0.07,0.07,0.0701,0,0,0,0,0,0,0,0.052,0.0524,0.0559,0.0565,0.057,0.0585,0.0591,0.0596,0.0638,0.0624,0.0628,0.063,0.0667,0.0677,0.068,0.0687,0.0699,0.07,0.0701,0.0701,0.0734,0.0735,0,0,0,0,0,0,0.0509,0.0522,0.0557,0.056,0.0547,0.0585,0.0592,0.0599,0.0638,0.0645,0.0629,0.0633,0.0675,0.0679,0.0682,0.0727,0.07,0.0701,0.0702,0.0734,0.0734,0.0735,0,0,0,0,0,0,0.0507,0.0511,0.0555,0.0541,0.0547,0.0584,0.0592,0.06,0.0644,0.0642,0.0649,0.067,0.0676,0.068,0.0726,0.0727,0.0702,0.0702,0.0734,0.0734,0.0735,0.0778,0,0,0,0,0,0,0.0506,0.0511,0.0533,0.054,0.0547,0.0579,0.0591,0.06,0.0641,0.0647,0.0678,0.0682,0.0677,0.0725,0.0727,0.0727,0.0703,0.0733,0.0734,0.0734,0.0777,0.078,0.0784,0,0,0,0,0,0.0504,0.0521,0.0534,0.0539,0.057,0.0579,0.0586,0.0616,0.0642,0.0661,0.0697,0.0683,0.0729,0.0727,0.0729,0.073,0.0733,0.0734,0.0734,0.0775,0.078,0.0784,0,0,0,0,0,0,0.0512,0.0528,0.0543,0.0565,0.058,0.0589,0.0624,0.0635,0.0678,0.0701,0.0704,0.071,0.0741,0.0734,0.0732,0.0739,0.0721,0.0722,0.0751,0.0755,0.0759,0.0776,0.0704,0,0,0,0,0,0.0523,0.0542,0.0553,0.0573,0.0594,0.0617,0.0635,0.0647,0.0674,0.0697,0.0727,0.0744,0.0738,0.0751,0.0754,0.0773,0.0765,0.0768,0.0771,0.0774,0.0789,0.0768,0.0772,0.0737,0.0737,0.0737,0,0,0.0529,0.0542,0.0554,0.0577,0.0607,0.0631,0.0633,0.0667,0.0695,0.0692,0.0775,0.0766,0.0747,0.0765,0.0775,0.0766,0.0784,0.0775,0.0778,0.0791,0.077,0.0773,0.0776,0.0738,0.0738,0.0738,0,0,0.0539,0.0575,0.0596,0.0617,0.0653,0.0663,0.0679,0.0717,0.0756,0.0805,0.08,0.0806,0.0833,0.081,0.0795,0.0821,0.0803,0.0813,0.085,0.0829,0.0832,0.0834,0.0846,0.0849,0.0815,0.0815,0.0816,0,0.055,0.0579,0.0603,0.0631,0.0659,0.0683,0.0714,0.0746,0.0794,0.0828,0.0842,0.086,0.0847,0.083,0.0837,0.0828,0.083,0.0835,0.0835,0.0836,0.0838,0.0849,0.0852,0.0818,0.0817,0.0817,0.0817,0,0.0572,0.0609,0.0633,0.0678,0.0705,0.0739,0.0776,0.0834,0.0882,0.0896,0.0932,0.0917,0.0922,0.0899,0.0881,0.0872,0.0875,0.0841,0.0826,0.0844,0.0855,0.0857,0.0821,0.082,0.0819,0.0819,0,0,0.056,0.0633,0.0646,0.0686,0.0739,0.0763,0.0832,0.0884,0.0935,0.0972,0.1018,0.0993,0.0988,0.0971,0.0933,0.0912,0.0922,0.0893,0.0891,0.091,0.0909,0.0887,0.0887,0.089,0.089,0.0891,0.0918,0,0.058,0.0635,0.0668,0.0737,0.0777,0.0835,0.0895,0.0943,0.0989,0.1046,0.1024,0.1046,0.101,0.1011,0.0984,0.0935,0.0927,0.092,0.0885,0.0885,0.0865,0.0887,0.0891,0.092,0.092,0.0921,0.0921,0,0.059,0.0631,0.0701,0.0787,0.0817,0.0878,0.0986,0.103,0.1092,0.1124,0.1133,0.1121,0.1104,0.1066,0.1016,0.1018,0.098,0.094,0.0939,0.0905,0.0864,0.0892,0.0924,0.0924,0.0924,0.0923,0.0923,0,0.0567,0.0652,0.0718,0.075,0.085,0.0935,0.1002,0.1077,0.1122,0.118,0.1208,0.1184,0.1193,0.1131,0.1054,0.1049,0.0992,0.0967,0.0915,0.0914,0.0907,0.0904,0.0937,0.0937,0.0937,0.0937,0.0937,0,0.0563,0.0623,0.074,0.0785,0.0895,0.0961,0.107,0.1137,0.1201,0.1222,0.1253,0.1221,0.1212,0.1168,0.1086,0.101,0.1019,0.0939,0.0917,0.0928,0.0926,0.091,0.0906,0.0938,0.0938,0.0938,0.0938,0,0.0535,0.0605,0.0701,0.0842,0.0895,0.099,0.1125,0.1168,0.1253,0.1283,0.1304,0.1292,0.1237,0.1209,0.1114,0.1068,0.0975,0.094,0.0983,0.0961,0.0917,0.0916,0.0925,0.0924,0.0923,0.0923,0.0923,0,0.0524,0.0564,0.0735,0.0807,0.0902,0.1031,0.1093,0.1193,0.1208,0.126,0.1239,0.1255,0.1227,0.1089,0.1047,0.0974,0.0936,0.0943,0.0917,0.0936,0.0915,0.0914,0.0913,0.0922,0.0922,0.0921,0.0921,0,0.0499,0.0582,0.0658,0.0796,0.0911,0.0983,0.1082,0.1068,0.1136,0.1248,0.1164,0.114,0.1099,0.1019,0.1015,0.0917,0.097,0.0938,0.0938,0.0914,0.0933,0.0912,0.0912,0.0919,0.092,0.092,0.092,0,0.049,0.0536,0.064,0.0752,0.0885,0.09,0.0943,0.0955,0.0983,0.1061,0.0997,0.0992,0.104,0.0982,0.0901,0.0901,0.0891,0.0882,0.0886,0.0888,0.0863,0.0881,0.0844,0,0,0,0,0,0.0468,0.049,0.0573,0.0684,0.0806,0.0878,0.0912,0.0925,0.0983,0.0923,0.0979,0.0918,0.0888,0.0837,0.0826,0.0868,0.0875,0.0854,0.0861,0.0909,0.0911,0.0885,0,0,0,0,0,0,0.0453,0.053,0.0533,0.0599,0.0666,0.0756,0.0768,0.0784,0.0739,0.0822,0.0771,0.0932,0.086,0.0911,0.0834,0.0841,0.0841,0.0896,0.0896,0.0908,0.091,0.0912,0.0885,0,0,0,0,0]},{"header":{"parameterUnit":"m.s-1","parameterCategory":2,"la1":30.2991,"la2":30.254,"lo1":-89.0895,"lo2":-89.0444,"dy":0.0017,"dx":0.0017,"nx":28,"ny":28,"refTime":"2025-06-19T21:00:00:Z","depth":"4","parameterNumber":3,"parameterNumberName":"V-component_of_CURRENTS"},"data":[0,0,0,0,0,0,0,0,0,0,0,0,0,0,0,0,0,0,0,0,0,0,0,0,0,0,0,0,0,0,0,0,0,0,0,0,0,0,0,0,0,0,0,0,0,0,0,0,0,0,0,0,0,0,0,0,0,0,-0.0093,-0.0093,0,-0.0156,-0.0156,-0.0157,-0.0201,-0.0202,-0.0202,-0.0202,-0.0337,-0.0341,-0.0344,0,0,0,0,0,0,0,0,0,0,0,0,0,-0.0057,-0.0058,-0.0093,-0.0094,-0.0094,-0.0155,-0.0157,-0.0158,-0.0201,-0.0202,-0.0202,-0.0202,-0.0336,-0.034,-0.0344,0,0,0,0,0,0,0,0,0,0,0,0,0,-0.0094,-0.0058,-0.0093,-0.0121,-0.0124,-0.0155,-0.0157,-0.0158,-0.0201,-0.0202,-0.0202,-0.0202,-0.0335,-0.034,-0.0345,-0.0374,0,0,-0.0361,-0.0363,0,0,0,0,0,0,0,0,-0.0092,-0.0095,-0.0117,-0.012,-0.0123,-0.0169,-0.0193,-0.0233,-0.0201,-0.0175,-0.0202,-0.0202,-0.0286,-0.0295,-0.0309,-0.038,-0.0386,-0.0362,-0.0365,-0.0367,-0.0368,0,0,0,0,0,0,0,-0.0089,-0.0093,-0.012,-0.0117,-0.0121,-0.0147,-0.0152,-0.0201,-0.0232,-0.0177,-0.018,-0.0183,-0.0288,-0.0304,-0.0313,-0.0388,-0.0361,-0.0366,-0.0369,-0.0371,-0.0563,-0.0565,0,0,0,0,0,0,-0.0074,-0.0091,-0.0118,-0.0122,-0.0105,-0.0147,-0.0153,-0.0156,-0.023,-0.024,-0.0183,-0.0185,-0.0295,-0.0307,-0.0318,-0.0403,-0.0367,-0.0372,-0.0375,-0.0561,-0.0564,-0.0566,0,0,0,0,0,0,-0.0073,-0.0076,-0.0116,-0.0106,-0.0112,-0.0147,-0.015,-0.0157,-0.0184,-0.0233,-0.0245,-0.0203,-0.0295,-0.031,-0.0389,-0.0406,-0.0374,-0.0379,-0.0559,-0.0562,-0.0565,-0.0543,0,0,0,0,0,0,-0.0071,-0.0075,-0.0079,-0.0105,-0.0112,-0.0138,-0.015,-0.0158,-0.0183,-0.0187,-0.0254,-0.0266,-0.0297,-0.0381,-0.0394,-0.0413,-0.0383,-0.0557,-0.056,-0.0564,-0.0541,-0.0545,-0.0548,0,0,0,0,0,-0.007,-0.007,-0.0079,-0.0082,-0.0114,-0.0138,-0.0145,-0.0172,-0.0184,-0.0197,-0.0257,-0.0265,-0.0413,-0.0387,-0.0402,-0.0423,-0.0555,-0.0559,-0.0564,-0.054,-0.0544,-0.0548,0,0,0,0,0,0,-0.0059,-0.0075,-0.0085,-0.0091,-0.0114,-0.0144,-0.0161,-0.0177,-0.0232,-0.0246,-0.0293,-0.031,-0.0387,-0.0415,-0.0385,-0.0492,-0.0484,-0.0492,-0.0461,-0.0465,-0.0469,-0.0446,-0.0387,0,0,0,0,0,-0.0057,-0.0061,-0.0083,-0.0091,-0.0104,-0.0136,-0.0151,-0.0169,-0.0215,-0.0238,-0.0297,-0.036,-0.0414,-0.0447,-0.0506,-0.0563,-0.0567,-0.0588,-0.0591,-0.0594,-0.0588,-0.0614,-0.0617,-0.058,-0.058,-0.058,0,0,-0.0056,-0.0064,-0.0069,-0.0089,-0.0114,-0.0133,-0.0147,-0.0174,-0.0203,-0.0247,-0.0328,-0.038,-0.0436,-0.0505,-0.054,-0.0529,-0.0607,-0.0599,-0.06,-0.0594,-0.0618,-0.0621,-0.0624,-0.0583,-0.0583,-0.0582,0,0,-0.0053,-0.0067,-0.0071,-0.0091,-0.012,-0.0138,-0.0146,-0.0196,-0.0234,-0.0305,-0.0348,-0.0413,-0.0506,-0.0546,-0.0574,-0.0633,-0.0629,-0.0654,-0.0645,-0.0669,-0.0671,-0.0673,-0.0673,-0.0675,-0.0648,-0.0648,-0.0648,0,-0.0052,-0.006,-0.0078,-0.0091,-0.0108,-0.014,-0.0156,-0.0197,-0.0272,-0.0315,-0.0334,-0.0476,-0.0522,-0.0587,-0.0605,-0.0637,-0.064,-0.0617,-0.0669,-0.0671,-0.0673,-0.0673,-0.0675,-0.0648,-0.0648,-0.0648,-0.0648,0,-0.0055,-0.0066,-0.0075,-0.0098,-0.0118,-0.014,-0.0186,-0.0238,-0.0289,-0.0334,-0.0432,-0.0501,-0.0571,-0.0602,-0.0619,-0.0664,-0.0656,-0.067,-0.0645,-0.0675,-0.0674,-0.0676,-0.0647,-0.0647,-0.0648,-0.0648,0,0,-0.0038,-0.0069,-0.0072,-0.0085,-0.0125,-0.0141,-0.0199,-0.0259,-0.0299,-0.0389,-0.0448,-0.0544,-0.0573,-0.0606,-0.064,-0.0664,-0.0678,-0.0665,-0.0666,-0.064,-0.071,-0.0665,-0.0664,-0.0693,-0.0693,-0.0694,-0.0697,0,-0.0038,-0.0049,-0.0071,-0.0095,-0.0109,-0.016,-0.0205,-0.0267,-0.0331,-0.0403,-0.0481,-0.0542,-0.0574,-0.0592,-0.0628,-0.0676,-0.0687,-0.0675,-0.0707,-0.0708,-0.0644,-0.0667,-0.0697,-0.0699,-0.07,-0.0701,-0.0701,0,-0.0035,-0.0041,-0.0056,-0.0095,-0.0108,-0.0128,-0.0199,-0.0243,-0.0342,-0.0393,-0.0463,-0.0516,-0.0578,-0.0588,-0.0667,-0.0655,-0.0672,-0.0703,-0.0704,-0.067,-0.0669,-0.0671,-0.0706,-0.0706,-0.0705,-0.0705,-0.0705,0,-0.0006,-0.0035,-0.0042,-0.0056,-0.0102,-0.0132,-0.0163,-0.0247,-0.0277,-0.0367,-0.0384,-0.0488,-0.0512,-0.0578,-0.0631,-0.0647,-0.07,-0.0732,-0.0707,-0.0704,-0.0748,-0.0747,-0.0765,-0.0765,-0.0765,-0.0765,-0.0765,0,0.0005,-0.0006,-0.0028,-0.0034,-0.0048,-0.0099,-0.0125,-0.0181,-0.0239,-0.0255,-0.0354,-0.0374,-0.0505,-0.0553,-0.0618,-0.066,-0.0684,-0.0702,-0.0705,-0.0741,-0.0738,-0.0749,-0.0747,-0.0765,-0.0765,-0.0765,-0.0765,0,0.0027,0.0014,0.0005,-0.0029,-0.0031,-0.0045,-0.0066,-0.0089,-0.0141,-0.0155,-0.0166,-0.0281,-0.0355,-0.0461,-0.0564,-0.0613,-0.0676,-0.0672,-0.0674,-0.0678,-0.067,-0.0668,-0.0674,-0.0673,-0.0671,-0.067,-0.067,0,0.0033,0.0035,0.0031,0.0044,0.0031,0.0022,0.0019,-0.0033,-0.0033,-0.0088,-0.0084,-0.0166,-0.0241,-0.0358,-0.0487,-0.0604,-0.0614,-0.0634,-0.0689,-0.066,-0.0663,-0.0662,-0.0661,-0.0668,-0.0667,-0.0667,-0.0667,0,0.0042,0.0043,0.0044,0.0089,0.0098,0.0105,0.0108,0.0116,0.007,0.0049,0.0002,-0.0094,-0.0179,-0.0334,-0.0402,-0.0494,-0.0633,-0.0622,-0.0626,-0.0678,-0.0652,-0.0656,-0.0657,-0.0662,-0.0663,-0.0663,-0.0664,0,0.0052,0.0058,0.0081,0.0118,0.0158,0.0174,0.0156,0.0157,0.0146,0.0099,0.009,-0.0042,-0.0123,-0.0272,-0.0346,-0.0428,-0.0473,-0.0503,-0.0515,-0.0521,-0.0486,-0.0431,-0.037,0,0,0,0,0,0.0066,0.0079,0.011,0.0143,0.0198,0.0223,0.0219,0.0195,0.0179,0.017,0.0131,0.0053,-0.0107,-0.0204,-0.0277,-0.0346,-0.0495,-0.0434,-0.0537,-0.0638,-0.0643,-0.0626,0,0,0,0,0,0,0.0064,0.0098,0.0107,0.0183,0.0232,0.0267,0.0268,0.0236,0.0226,0.02,0.0108,0.0074,-0.0094,-0.0037,-0.0257,-0.029,-0.0359,-0.051,-0.0511,-0.0636,-0.064,-0.0644,-0.0628,0,0,0,0,0]}]]